CW5763 Weather Reports


Display with metric or nautical units.
time (UTC)temp
F
wind
direction
speed
MPH
gust
MPH
rain 1hr
in
rain 24hr
in
rain mn
in
humidity
%
barometer
mb
20200715122731 65 5 3.0 10.0 0.00 0.01 0.00 77 1018.8
20200715122207 66 307 3.0 9.0 0.00 0.01 0.00 75 1018.9
20200715121708 66 265 3.0 9.0 0.00 0.01 0.00 74 1019.0
20200715121226 67 242 3.0 9.0 0.00 0.01 0.00 73 1018.8
20200715120802 67 206 3.0 8.0 0.00 0.01 0.00 72 1019.0
20200715120725 67 289 3.0 9.0 0.00 0.01 0.00 72 1018.9
20200715120303 67 357 3.0 9.0 0.00 0.01 0.00 72 1019.0
20200715120215 67 295 3.0 10.0 0.00 0.01 0.00 73 1018.9
20200715115712 67 306 4.0 10.0 0.00 0.01 0.00 71 1018.8
20200715115220 67 329 4.0 10.0 0.00 0.01 0.00 72 1018.9
20200715114723 67 296 4.0 10.0 0.00 0.01 0.00 71 1018.8
20200715114221 67 309 3.0 10.0 0.00 0.01 0.00 71 1018.8
20200715113803 67 269 3.0 7.0 0.00 0.01 0.00 72 1018.9
20200715113714 67 344 3.0 10.0 0.00 0.01 0.00 72 1018.8
20200715113302 67 341 3.0 8.0 0.00 0.01 0.00 73 1018.9
20200715113217 67 282 3.0 10.0 0.00 0.01 0.00 73 1018.8
20200715112721 67 317 4.0 10.0 0.00 0.01 0.00 73 1018.7
20200715112225 67 319 3.0 10.0 0.00 0.01 0.00 74 1018.7
20200715111715 67 257 3.0 10.0 0.00 0.01 0.00 73 1018.6
20200715111208 67 280 3.0 10.0 0.00 0.01 0.00 74 1018.7
20200715110805 67 318 3.0 10.0 0.00 0.01 0.00 73 1018.8
20200715110717 67 317 3.0 9.0 0.00 0.01 0.00 73 1018.6
20200715110302 66 296 3.0 8.0 0.00 0.01 0.00 73 1018.8
20200715110226 66 294 3.0 9.0 0.00 0.01 0.00 73 1018.7
20200715105717 66 311 3.0 9.0 0.00 0.01 0.00 73 1018.9
20200715105228 66 300 2.0 10.0 0.00 0.01 0.00 73 1018.7
20200715104722 66 316 3.0 10.0 0.00 0.01 0.00 74 1018.8
20200715104222 66 338 3.0 9.0 0.00 0.01 0.00 75 1018.8
20200715103803 65 355 3.0 5.0 0.00 0.01 0.00 74 1018.9
20200715103722 65 17 4.0 9.0 0.00 0.01 0.00 74 1018.8
20200715103302 65 328 3.0 8.0 0.00 0.01 0.00 74 1019.0
20200715103212 65 333 4.0 9.0 0.00 0.01 0.00 74 1018.9
20200715102233 65 5 3.0 9.0 0.00 0.01 0.00 75 1018.8
20200715101736 65 312 3.0 9.0 0.00 0.01 0.00 75 1018.8
20200715101220 65 269 3.0 8.0 0.00 0.01 0.00 76 1018.9
20200715100803 65 292 2.0 7.0 0.00 0.01 0.00 76 1019.1
20200715100714 65 287 2.0 8.0 0.00 0.01 0.00 77 1019.0
20200715100303 65 306 3.0 8.0 0.00 0.01 0.00 76 1019.1
20200715100217 65 298 3.0 9.0 0.00 0.01 0.00 77 1019.0
20200715095713 64 318 3.0 9.0 0.00 0.01 0.00 77 1019.0
20200715095221 64 303 3.0 11.0 0.00 0.01 0.00 77 1019.0
20200715094719 64 307 3.0 11.0 0.00 0.01 0.00 77 1019.1
20200715094218 64 321 4.0 11.0 0.00 0.01 0.00 77 1018.8
20200715093804 64 276 3.0 12.0 0.00 0.01 0.00 78 1019.1
20200715093708 64 313 3.0 9.0 0.00 0.01 0.00 77 1019.0
20200715093303 64 292 2.0 9.0 0.00 0.01 0.00 78 1019.0
20200715093228 64 0 2.0 9.0 0.00 0.01 0.00 78 1018.9
20200715092710 63 355 2.0 6.0 0.00 0.01 0.00 77 1018.9
20200715092215 63 324 2.0 6.0 0.00 0.01 0.00 78 1018.8
20200715091719 63 262 2.0 7.0 0.00 0.01 0.00 77 1018.7
20200715091231 63 316 2.0 8.0 0.00 0.01 0.00 78 1018.8
20200715090804 63 321 3.0 3.0 0.00 0.01 0.00 78 1018.8
20200715090716 63 244 3.0 8.0 0.00 0.01 0.00 78 1018.7
20200715090303 63 311 3.0 8.0 0.00 0.01 0.00 77 1018.8
20200715090211 63 305 3.0 8.0 0.00 0.01 0.00 77 1018.6
20200715085710 63 26 3.0 8.0 0.00 0.01 0.00 77 1018.5
20200715085216 63 240 2.0 8.0 0.00 0.01 0.00 77 1018.6
20200715084714 63 306 2.0 8.0 0.00 0.01 0.00 78 1018.6
20200715084220 62 329 3.0 8.0 0.00 0.01 0.00 78 1018.5
20200715083803 62 305 3.0 8.0 0.00 0.01 0.00 79 1018.7
20200715083730 62 283 3.0 9.0 0.00 0.01 0.00 79 1018.5
20200715083303 62 307 3.0 8.0 0.00 0.01 0.00 79 1018.7
20200715083219 62 325 3.0 9.0 0.00 0.01 0.00 79 1018.6
20200715082728 62 306 3.0 9.0 0.00 0.01 0.00 79 1018.5
20200715082211 62 286 2.0 6.0 0.00 0.01 0.00 80 1018.5
20200715081717 62 345 1.0 8.0 0.00 0.01 0.00 81 1018.4
20200715081209 62 355 3.0 8.0 0.00 0.01 0.00 80 1018.4
20200715080803 61 309 3.0 3.0 0.00 0.01 0.00 81 1018.4
20200715080707 62 303 3.0 5.0 0.00 0.01 0.00 81 1018.3
20200715080303 61 281 2.0 5.0 0.00 0.01 0.00 81 1018.5
20200715080218 61 298 2.0 5.0 0.00 0.01 0.00 81 1018.4
20200715075707 61 314 2.0 7.0 0.00 0.01 0.00 81 1018.4
20200715075218 61 298 2.0 8.0 0.00 0.01 0.00 81 1018.3
20200715074718 61 309 3.0 8.0 0.00 0.01 0.00 82 1018.3
20200715074223 61 305 3.0 8.0 0.00 0.01 0.00 82 1018.3
20200715073803 61 270 3.0 5.0 0.00 0.01 0.00 82 1018.5
20200715073717 61 322 3.0 7.0 0.00 0.01 0.00 82 1018.4
20200715073303 60 290 3.0 7.0 0.00 0.01 0.00 82 1018.5
20200715073215 60 303 3.0 7.0 0.00 0.01 0.00 82 1018.4
20200715072719 60 302 3.0 7.0 0.00 0.01 0.00 83 1018.4
20200715072215 60 264 2.0 8.0 0.00 0.01 0.00 83 1018.4
20200715071725 60 326 3.0 8.0 0.00 0.01 0.00 83 1018.3
20200715071210 60 301 3.0 7.0 0.00 0.01 0.00 83 1018.4
20200715070805 60 299 3.0 5.0 0.00 0.01 0.00 83 1018.4
20200715070716 60 305 3.0 6.0 0.00 0.01 0.00 84 1018.3
20200715070304 59 290 3.0 6.0 0.00 0.01 0.00 84 1018.4
20200715070209 59 182 3.0 5.0 0.00 0.01 0.00 84 1018.3
20200715065709 59 301 2.0 4.0 0.00 0.01 0.00 84 1018.2
20200715065219 59 288 2.0 7.0 0.00 0.01 0.00 85 1018.3
20200715064721 58 284 2.0 7.0 0.00 0.01 0.00 85 1018.3
20200715064212 58 297 3.0 7.0 0.00 0.01 0.00 86 1018.3
20200715063803 58 301 3.0 7.0 0.00 0.01 0.00 86 1018.4
20200715063721 58 282 3.0 7.0 0.00 0.01 0.00 86 1018.3
20200715063304 58 295 2.0 5.0 0.00 0.01 0.00 86 1018.4
20200715063226 58 272 2.0 6.0 0.00 0.01 0.00 86 1018.2
20200715062731 58 304 2.0 6.0 0.00 0.01 0.00 86 1018.2
20200715062214 57 298 2.0 7.0 0.00 0.01 0.00 87 1018.3
20200715061721 57 329 2.0 7.0 0.00 0.01 0.00 87 1018.1
20200715061221 57 301 2.0 4.0 0.00 0.01 0.00 88 1018.2
20200715060803 57 294 2.0 3.0 0.00 0.01 0.00 88 1018.3
20200715060724 57 321 2.0 4.0 0.00 0.01 0.00 88 1018.1
20200715060303 57 302 1.0 3.0 0.00 0.01 0.00 88 1018.3
20200715060231 57 273 1.0 3.0 0.00 0.01 0.00 88 1018.1
20200715055730 56 299 1.0 3.0 0.00 0.01 0.00 88 1018.2
20200715055227 56 299 1.0 3.0 0.00 0.01 0.00 88 1018.1
20200715054715 56 299 1.0 3.0 0.00 0.01 0.00 88 1018.0
20200715054213 56 284 1.0 3.0 0.00 0.01 0.00 88 1018.0
20200715053803 56 225 1.0 2.0 0.00 0.01 0.00 88 1018.2
20200715053719 56 224 1.0 3.0 0.00 0.01 0.00 88 1018.2
20200715053303 56 223 1.0 3.0 0.00 0.01 0.00 88 1018.2
20200715053213 56 223 1.0 3.0 0.00 0.01 0.00 88 1018.1
20200715052706 56 297 0.0 3.0 0.00 0.01 0.00 88 1018.1
20200715052218 56 297 1.0 3.0 0.00 0.01 0.00 88 1018.2
20200715051721 56 297 1.0 2.0 0.00 0.01 0.00 88 1018.2
20200715051209 56 297 1.0 3.0 0.00 0.01 0.00 88 1018.2
20200715050803 55 297 1.0 1.0 0.00 0.01 0.00 88 1018.2
20200715050723 55 297 1.0 3.0 0.00 0.01 0.00 88 1018.1
20200715050303 55 297 0.0 3.0 0.00 0.01 0.00 88 1018.1
20200715050209 55 297 0.0 3.0 0.00 0.01 0.00 88 1018.0
20200715045730 55 297 0.0 3.0 0.00 0.01 0.00 87 1018.0
20200715045213 55 297 1.0 3.0 0.00 0.01 0.00 87 1018.1
20200715044717 55 297 0.0 2.0 0.00 0.01 0.00 87 1018.1
20200715044219 55 297 0.0 1.0 0.00 0.01 0.00 87 1018.0
20200715043811 55 297 0.0 1.0 0.00 0.01 0.00 87 1018.1
20200715043718 55 297 0.0 2.0 0.00 0.01 0.00 87 1018.0
20200715043303 55 297 0.0 1.0 0.00 0.01 0.00 87 1018.3
20200715043208 55 297 0.0 2.0 0.00 0.01 0.00 87 1018.2
20200715042723 55 297 0.0 2.0 0.00 0.01 0.00 87 1018.2
20200715042208 55 297 0.0 2.0 0.00 0.01 0.00 87 1018.0
20200715041731 55 297 0.0 3.0 0.00 0.01 0.00 86 1018.0
20200715041211 55 297 0.0 3.0 0.00 0.01 0.00 86 1018.1
20200715040803 55 297 1.0 2.0 0.00 0.01 0.00 86 1018.2
20200715040711 55 297 1.0 3.0 0.00 0.01 0.00 86 1018.1
20200715040303 55 297 1.0 3.0 0.00 0.01 0.00 86 1018.2
20200715040223 55 297 1.0 3.0 0.00 0.01 0.00 86 1018.2
20200715035728 55 297 1.0 3.0 0.00 0.01 0.00 86 1018.2
20200715035218 55 297 2.0 4.0 0.00 0.01 0.00 86 1018.3
20200715034716 55 297 2.0 4.0 0.00 0.01 0.00 85 1018.1
20200715034229 56 297 1.0 5.0 0.00 0.02 0.00 85 1018.1
20200715033803 56 297 2.0 3.0 0.00 0.02 0.00 85 1018.2
20200715033718 56 297 2.0 5.0 0.00 0.02 0.00 85 1018.1
20200715033303 56 296 2.0 5.0 0.00 0.02 0.00 85 1018.1
20200715033232 56 296 2.0 5.0 0.00 0.02 0.00 85 1018.0
20200715032713 56 295 2.0 4.0 0.00 0.02 0.00 85 1018.0
20200715032219 56 303 1.0 4.0 0.00 0.02 0.00 84 1018.0
20200715031725 56 294 1.0 4.0 0.00 0.02 0.00 84 1017.9
20200715031214 56 290 1.0 4.0 0.00 0.02 0.00 84 1017.8
20200715030803 56 298 2.0 3.0 0.00 0.02 0.00 84 1018.1
20200715030708 56 298 2.0 4.0 0.00 0.02 0.00 84 1017.9
20200715030303 56 318 2.0 3.0 0.00 0.02 0.00 83 1018.1
20200715030210 56 318 2.0 3.0 0.00 0.02 0.00 84 1018.0
20200715025722 56 341 1.0 4.0 0.00 0.02 0.00 84 1018.0
20200715025215 56 341 1.0 8.0 0.00 0.02 0.00 83 1018.0
20200715024718 56 335 2.0 8.0 0.00 0.02 0.00 83 1018.1
20200715024223 56 322 2.0 8.0 0.00 0.02 0.00 83 1018.2
20200715023803 56 312 2.0 3.0 0.00 0.02 0.00 83 1018.4
20200715023721 56 323 2.0 8.0 0.00 0.02 0.00 83 1018.3
20200715023303 56 300 2.0 3.0 0.00 0.02 0.00 83 1018.4
20200715023224 56 300 2.0 8.0 0.00 0.02 0.00 84 1018.3
20200715022720 56 299 2.0 8.0 0.00 0.02 0.00 83 1018.3
20200715022207 56 323 2.0 5.0 0.00 0.02 0.00 83 1018.3
20200715021725 56 344 2.0 5.0 0.00 0.02 0.00 83 1018.4
20200715021226 56 306 1.0 5.0 0.00 0.02 0.00 83 1018.3
20200715020803 56 306 2.0 2.0 0.00 0.02 0.00 83 1018.5
20200715020727 56 303 2.0 5.0 0.00 0.02 0.00 83 1018.3
20200715020303 56 334 2.0 3.0 0.00 0.02 0.00 83 1018.5
20200715020216 56 300 2.0 5.0 0.00 0.02 0.00 83 1018.4
20200715015723 56 327 2.0 5.0 0.00 0.02 0.00 83 1018.2
20200715015221 56 340 2.0 5.0 0.00 0.02 0.00 83 1018.3
20200715014725 56 324 2.0 5.0 0.00 0.02 0.00 83 1018.1
20200715014229 56 336 2.0 5.0 0.00 0.02 0.00 83 1018.2
20200715013803 56 293 2.0 2.0 0.00 0.02 0.00 83 1018.2
20200715013715 56 315 2.0 5.0 0.00 0.02 0.00 83 1018.1
20200715013303 56 335 2.0 3.0 0.00 0.02 0.00 82 1018.4
20200715013229 56 335 2.0 4.0 0.00 0.02 0.00 82 1018.3
20200715012714 56 340 2.0 4.0 0.00 0.02 0.00 82 1018.1
20200715012208 56 335 2.0 8.0 0.00 0.02 0.00 83 1018.2
20200715011723 56 307 2.0 8.0 0.00 0.02 0.00 82 1018.2
20200715011228 56 316 2.0 8.0 0.00 0.02 0.00 82 1018.4
20200715010803 56 301 2.0 3.0 0.00 0.02 0.00 82 1018.6
20200715010720 56 311 2.0 8.0 0.00 0.02 0.00 82 1018.5
20200715010305 56 322 2.0 3.0 0.00 0.02 0.00 82 1018.7
20200715010213 56 325 2.0 8.0 0.00 0.02 0.00 82 1018.6
20200715005722 56 307 2.0 4.0 0.00 0.02 0.00 82 1018.6
20200715005223 57 307 2.0 4.0 0.00 0.02 0.00 82 1018.5
20200715004721 57 307 2.0 4.0 0.00 0.02 0.00 82 1018.4
20200715004219 57 355 1.0 9.0 0.00 0.02 0.00 81 1018.6
20200715003803 57 301 2.0 3.0 0.00 0.02 0.00 81 1018.8
20200715003711 57 301 2.0 9.0 0.00 0.02 0.00 81 1018.7
20200715003304 57 294 3.0 8.0 0.00 0.02 0.00 81 1018.8
20200715003208 57 295 3.0 9.0 0.00 0.02 0.00 81 1018.6
20200715002721 57 330 2.0 8.0 0.00 0.02 0.00 81 1018.6
20200715002222 57 306 2.0 10.0 0.00 0.02 0.00 81 1018.6
20200715001713 57 332 3.0 10.0 0.00 0.02 0.00 81 1018.6
20200715001219 57 286 3.0 10.0 0.00 0.02 0.00 81 1018.5
20200715000805 57 321 3.0 8.0 0.00 0.02 0.00 81 1018.5
20200715000704 57 319 3.0 10.0 0.00 0.02 0.00 81 1018.4
20200715000303 57 2 3.0 9.0 0.00 0.02 0.00 81 1018.5
20200715000224 57 331 3.0 10.0 0.00 0.02 0.00 81 1018.4
20200714235709 57 348 3.0 10.0 0.00 0.02 0.00 81 1018.3
20200714235210 57 340 4.0 10.0 0.00 0.02 0.00 81 1018.5
20200714234724 57 10 4.0 9.0 0.00 0.02 0.00 82 1018.5
20200714234224 57 331 3.0 9.0 0.00 0.02 0.00 82 1018.4
20200714233803 57 313 3.0 8.0 0.00 0.03 0.00 82 1018.6
20200714233718 57 351 3.0 9.0 0.00 0.03 0.00 82 1018.5
20200714233303 57 318 3.0 5.0 0.00 0.03 0.00 81 1018.6
20200714233215 57 327 3.0 8.0 0.00 0.03 0.00 81 1018.5
20200714232730 57 329 2.0 8.0 0.00 0.04 0.00 81 1018.5
20200714232223 57 348 2.0 10.0 0.00 0.06 0.00 81 1018.5
20200714231718 57 322 3.0 10.0 0.00 0.07 0.00 81 1018.4
20200714231222 57 344 3.0 10.0 0.00 0.09 0.00 81 1018.4
20200714230814 57 330 3.0 6.0 0.00 0.11 0.00 80 1018.5
20200714230723 57 307 3.0 8.0 0.00 0.11 0.00 80 1018.4
20200714230303 57 303 3.0 9.0 0.00 0.11 0.00 80 1018.7
20200714230225 57 294 3.0 9.0 0.00 0.11 0.11 80 1018.6
20200714225726 58 316 3.0 9.0 0.00 0.11 0.11 80 1018.5
20200714225224 58 309 3.0 8.0 0.00 0.11 0.11 81 1018.5
20200714224708 58 304 3.0 6.0 0.00 0.11 0.11 80 1018.5
20200714224222 58 349 2.0 8.0 0.00 0.11 0.11 80 1018.5
20200714223803 58 322 2.0 3.0 0.00 0.12 0.11 80 1018.5
20200714223715 58 321 2.0 8.0 0.00 0.12 0.11 80 1018.4
20200714223305 58 342 2.0 5.0 0.00 0.12 0.11 80 1018.6
20200714223224 58 341 2.0 5.0 0.00 0.12 0.11 80 1018.5
20200714222716 58 337 2.0 5.0 0.00 0.12 0.11 80 1018.5
20200714222206 58 17 2.0 5.0 0.00 0.12 0.11 80 1018.5
20200714221711 58 315 2.0 8.0 0.00 0.12 0.11 79 1018.5
20200714221222 58 319 3.0 8.0 0.00 0.12 0.11 79 1018.4
20200714220803 59 331 3.0 5.0 0.00 0.12 0.11 79 1018.4
20200714220719 59 318 3.0 8.0 0.00 0.12 0.11 79 1018.3
20200714220303 59 315 2.0 6.0 0.00 0.12 0.11 78 1018.5
20200714220225 59 312 2.0 6.0 0.00 0.12 0.11 78 1018.4
20200714215724 59 341 2.0 6.0 0.00 0.12 0.11 78 1018.4
20200714215228 59 329 2.0 9.0 0.00 0.12 0.11 78 1018.5
20200714214718 59 328 3.0 13.0 0.00 0.12 0.11 77 1018.4
20200714214222 60 355 3.0 13.0 0.00 0.12 0.11 77 1018.3
20200714213803 60 336 3.0 5.0 0.00 0.12 0.11 77 1018.3
20200714213722 60 325 4.0 13.0 0.00 0.12 0.11 77 1018.2
20200714213303 60 314 3.0 10.0 0.00 0.12 0.11 77 1018.4
20200714213213 60 321 4.0 10.0 0.00 0.12 0.11 77 1018.3
20200714212716 60 355 4.0 9.0 0.00 0.12 0.11 77 1018.4
20200714212219 60 336 4.0 8.0 0.00 0.12 0.11 77 1018.3
20200714211721 60 309 4.0 8.0 0.00 0.12 0.11 78 1018.3
20200714211220 60 339 3.0 11.0 0.00 0.12 0.11 77 1018.4
20200714210804 60 332 3.0 3.0 0.00 0.12 0.11 78 1018.5
20200714210711 60 302 3.0 11.0 0.00 0.12 0.11 78 1018.4
20200714210304 60 349 3.0 6.0 0.00 0.12 0.11 78 1018.4
20200714210227 60 329 3.0 11.0 0.00 0.12 0.11 78 1018.3
20200714205729 60 337 2.0 8.0 0.00 0.12 0.11 79 1018.3
20200714205230 60 324 3.0 8.0 0.00 0.12 0.11 79 1018.2
20200714204711 60 310 3.0 8.0 0.00 0.12 0.11 78 1018.1
20200714204223 60 323 3.0 8.0 0.00 0.12 0.11 78 1018.1
20200714203803 60 326 3.0 3.0 0.00 0.12 0.11 78 1018.2
20200714203724 60 294 3.0 8.0 0.00 0.12 0.11 78 1018.1
20200714203305 61 337 3.0 6.0 0.00 0.12 0.11 78 1018.2
20200714203221 61 329 3.0 7.0 0.00 0.12 0.11 78 1018.0
20200714202722 61 340 3.0 6.0 0.00 0.12 0.11 79 1018.0
20200714202220 61 342 2.0 8.0 0.00 0.12 0.11 79 1017.8
20200714201717 61 341 2.0 8.0 0.00 0.12 0.11 79 1017.8
20200714201227 61 329 2.0 8.0 0.00 0.12 0.11 79 1017.9
20200714200803 61 326 2.0 3.0 0.00 0.12 0.11 80 1017.9
20200714200731 61 344 2.0 7.0 0.00 0.12 0.11 80 1017.8
20200714200303 61 5 2.0 5.0 0.00 0.12 0.11 81 1017.9
20200714200224 61 5 2.0 7.0 0.00 0.12 0.11 81 1017.8
20200714195725 61 342 1.0 4.0 0.00 0.12 0.11 81 1017.9
20200714195223 62 336 1.0 4.0 0.00 0.12 0.11 81 1017.8
20200714194722 62 336 1.0 3.0 0.00 0.12 0.11 82 1017.6
20200714194211 62 351 1.0 4.0 0.00 0.12 0.11 81 1017.6
20200714193803 62 351 1.0 2.0 0.00 0.12 0.11 81 1017.5
20200714193712 62 351 1.0 4.0 0.00 0.12 0.11 81 1017.4
20200714193304 62 351 2.0 6.0 0.00 0.12 0.11 81 1017.6
20200714193214 62 350 1.0 8.0 0.00 0.12 0.11 81 1017.5
20200714192712 62 355 2.0 8.0 0.00 0.12 0.11 81 1017.6
20200714192230 62 325 3.0 8.0 0.00 0.12 0.11 81 1017.4
20200714191718 62 341 3.0 9.0 0.00 0.12 0.11 80 1017.5
20200714191224 62 355 3.0 9.0 0.00 0.12 0.11 80 1017.6
20200714190806 62 345 3.0 8.0 0.00 0.12 0.11 80 1017.6
20200714190725 62 305 3.0 8.0 0.00 0.12 0.11 80 1017.6
20200714190303 62 342 3.0 5.0 0.00 0.12 0.11 80 1017.6
20200714190213 62 300 3.0 8.0 0.00 0.12 0.11 80 1017.5
20200714185721 63 312 2.0 5.0 0.00 0.12 0.11 80 1017.6
20200714185226 63 313 2.0 5.0 0.00 0.12 0.11 80 1017.5
20200714184720 63 346 3.0 8.0 0.00 0.12 0.11 79 1017.5
20200714184229 63 307 3.0 8.0 0.00 0.12 0.11 79 1017.4
20200714183803 63 303 2.0 8.0 0.00 0.12 0.11 79 1017.5
20200714183728 63 319 2.0 8.0 0.00 0.12 0.11 79 1017.5
20200714183305 63 314 2.0 7.0 0.00 0.12 0.11 79 1017.5
20200714183219 63 322 2.0 8.0 0.00 0.12 0.11 79 1017.4
20200714182712 64 303 3.0 7.0 0.00 0.12 0.11 79 1017.4
20200714182220 64 289 3.0 11.0 0.00 0.12 0.11 79 1017.5
20200714181719 64 22 3.0 11.0 0.00 0.12 0.11 79 1017.5
20200714181224 64 332 4.0 11.0 0.00 0.12 0.11 79 1017.4
20200714180803 64 327 3.0 8.0 0.00 0.12 0.11 79 1017.5
20200714180716 64 315 4.0 8.0 0.00 0.12 0.11 79 1017.4
20200714180303 64 345 3.0 8.0 0.00 0.12 0.11 79 1017.4
20200714180204 64 307 3.0 8.0 0.00 0.12 0.11 79 1017.4
20200714175712 64 284 3.0 10.0 0.00 0.12 0.11 79 1017.4
20200714175214 64 319 3.0 10.0 0.00 0.12 0.11 80 1017.4
20200714174723 64 341 3.0 10.0 0.00 0.12 0.11 81 1017.4
20200714174227 64 332 3.0 8.0 0.00 0.12 0.11 82 1017.5
20200714173804 64 321 3.0 5.0 0.00 0.12 0.11 82 1017.6
20200714173723 64 302 3.0 8.0 0.00 0.12 0.11 83 1017.6
20200714173303 64 314 3.0 5.0 0.00 0.12 0.11 83 1017.6
20200714173215 64 287 3.0 8.0 0.00 0.12 0.11 83 1017.5
20200714172711 64 355 3.0 9.0 0.00 0.12 0.11 84 1017.4
20200714172224 64 346 3.0 9.0 0.00 0.12 0.11 85 1017.2
20200714171721 64 308 3.0 9.0 0.00 0.12 0.11 86 1017.4
20200714171210 64 294 3.0 9.0 0.00 0.12 0.11 88 1017.3
20200714170803 64 289 2.0 9.0 0.00 0.12 0.11 90 1017.4
20200714170724 64 322 2.0 6.0 0.00 0.12 0.11 90 1017.3
20200714170303 64 286 2.0 3.0 0.00 0.12 0.11 91 1017.5
20200714170212 64 280 2.0 4.0 0.00 0.12 0.11 91 1017.4
20200714165722 64 286 1.0 5.0 0.00 0.12 0.11 91 1017.6
20200714165228 64 292 1.0 5.0 0.00 0.12 0.11 91 1017.6
20200714164717 64 284 1.0 5.0 0.00 0.12 0.11 91 1017.7
20200714164215 63 254 1.0 5.0 0.00 0.12 0.11 91 1017.6
20200714163803 63 275 1.0 3.0 0.00 0.12 0.11 91 1017.7
20200714163721 63 228 1.0 7.0 0.00 0.12 0.11 91 1017.6
20200714163303 63 263 1.0 6.0 0.00 0.12 0.11 91 1017.8
20200714163217 63 254 1.0 7.0 0.00 0.12 0.11 90 1017.7
20200714162723 63 263 2.0 7.0 0.00 0.12 0.11 90 1017.7
20200714162218 63 288 1.0 7.0 0.00 0.12 0.11 90 1017.7
20200714161719 64 228 1.0 8.0 0.00 0.12 0.11 89 1017.7
20200714161215 64 265 1.0 8.0 0.01 0.12 0.11 89 1017.7
20200714160803 64 249 2.0 3.0 0.01 0.12 0.11 89 1017.9
20200714160715 64 249 2.0 11.0 0.01 0.12 0.11 89 1017.8
20200714160305 64 271 3.0 9.0 0.01 0.12 0.11 89 1017.9
20200714160229 64 244 3.0 11.0 0.01 0.12 0.11 89 1017.8
20200714155716 64 300 3.0 8.0 0.01 0.12 0.11 88 1017.9
20200714155220 65 292 2.0 8.0 0.01 0.12 0.11 89 1017.9
20200714154723 64 251 2.0 8.0 0.01 0.12 0.11 90 1017.8
20200714154220 64 223 1.0 8.0 0.01 0.12 0.11 90 1017.9
20200714153803 64 262 1.0 3.0 0.01 0.12 0.11 90 1018.0
20200714153707 64 190 1.0 7.0 0.01 0.12 0.11 90 1017.9
20200714153304 64 255 2.0 6.0 0.01 0.12 0.11 90 1018.1
20200714153220 64 255 2.0 8.0 0.01 0.12 0.11 90 1018.0
20200714152711 64 240 2.0 8.0 0.01 0.12 0.11 91 1018.1
20200714152211 63 240 2.0 8.0 0.01 0.12 0.11 91 1018.2
20200714151718 63 221 1.0 5.0 0.01 0.12 0.11 92 1018.3
20200714151215 63 194 1.0 5.0 0.00 0.11 0.10 92 1018.2
20200714150803 63 230 1.0 3.0 0.00 0.11 0.10 92 1018.5
20200714150719 62 229 1.0 5.0 0.00 0.11 0.10 92 1018.4
20200714150304 62 226 1.0 8.0 0.00 0.11 0.10 91 1018.3
20200714150229 62 229 1.0 6.0 0.00 0.11 0.10 91 1018.2
20200714145720 62 242 1.0 8.0 0.00 0.11 0.10 90 1018.4
20200714145208 63 248 2.0 10.0 0.00 0.11 0.10 89 1018.4
20200714144720 63 273 3.0 10.0 0.00 0.11 0.10 88 1018.5
20200714144222 64 247 3.0 10.0 0.00 0.11 0.10 87 1018.5
20200714143803 64 266 3.0 10.0 0.00 0.11 0.10 86 1018.6
20200714143719 64 342 3.0 10.0 0.00 0.11 0.10 86 1018.5
20200714143303 64 236 3.0 10.0 0.00 0.11 0.10 86 1018.6
20200714143216 64 228 4.0 10.0 0.00 0.11 0.10 86 1018.5
20200714142719 64 275 3.0 8.0 0.00 0.11 0.10 85 1018.5
20200714142224 64 306 2.0 12.0 0.00 0.11 0.10 85 1018.5
20200714141725 64 255 3.0 16.0 0.00 0.11 0.10 84 1018.5
20200714141221 64 285 3.0 16.0 0.00 0.11 0.10 84 1018.6
20200714140803 65 254 3.0 8.0 0.00 0.11 0.10 83 1018.8
20200714140711 65 161 3.0 12.0 0.00 0.11 0.10 83 1018.7
20200714140303 65 285 3.0 9.0 0.00 0.11 0.10 84 1018.7
20200714140224 65 317 3.0 12.0 0.00 0.11 0.10 84 1018.6
20200714135724 65 228 3.0 12.0 0.00 0.11 0.10 83 1018.6
20200714135220 65 305 3.0 9.0 0.00 0.11 0.10 81 1018.7
20200714134722 66 174 3.0 9.0 0.00 0.11 0.10 80 1018.7
20200714134222 66 263 3.0 10.0 0.00 0.11 0.10 79 1018.7
20200714133803 67 234 2.0 6.0 0.00 0.11 0.10 78 1018.8
20200714133732 67 343 2.0 10.0 0.00 0.11 0.10 78 1018.8
20200714133304 67 266 3.0 10.0 0.00 0.11 0.10 77 1018.8
20200714133216 67 327 2.0 10.0 0.00 0.11 0.10 76 1018.7
20200714132739 68 20 3.0 10.0 0.00 0.11 0.10 75 1018.5
20200714132224 68 190 3.0 10.0 0.00 0.11 0.10 73 1018.6
20200714131741 69 246 3.0 8.0 0.00 0.11 0.10 73 1018.7
20200714131208 70 255 3.0 8.0 0.00 0.11 0.10 71 1018.6
20200714130809 70 148 3.0 7.0 0.00 0.11 0.10 74 1018.7
20200714130707 70 250 3.0 8.0 0.00 0.11 0.10 72 1018.5
20200714130310 70 240 3.0 8.0 0.00 0.11 0.10 72 1018.6
20200714130231 70 298 3.0 8.0 0.00 0.11 0.10 72 1018.6
20200714125710 70 296 2.0 8.0 0.00 0.11 0.10 71 1018.6
20200714125230 69 21 2.0 8.0 0.00 0.11 0.10 72 1018.6
20200714124717 69 218 2.0 8.0 0.00 0.11 0.10 75 1018.6
20200714124215 68 223 2.0 8.0 0.00 0.11 0.10 75 1018.6
20200714123804 67 119 2.0 3.0 0.00 0.11 0.10 82 1018.7
20200714123719 67 248 2.0 6.0 0.00 0.11 0.10 82 1018.6
20200714123304 67 196 2.0 6.0 0.00 0.11 0.10 83 1018.6
20200714123211 67 184 2.0 11.0 0.00 0.11 0.10 82 1018.5